Flag for Germany Weather past 2 weeks in Worms, Rhineland-Palatinate, Germany

Now
52 °F

Partly sunny.


Feels Like: 49 °F
Forecast: 47 / 69 °F
Wind: 8 mph from North

Location: Baden Wurttemberg - Neuostheim

Current Time: May 27, 2015 at 10:01:40 AM

Latest Report: May 27, 2015 at 9:20 AM


Visibility: N/A

Pressure: 30.27 "Hg

Humidity: 67%

Dew point: 41 °F

Location of WormsLocation

Historic Weather in Worms — Graph

°F

Worms temperature yesterday

Maximum temperature yesterday: 61 °F (at 2:50 PM)
Minimum temperature yesterday: 52 °F (at 5:20 AM)
Average temperature yesterday: 57 °F

Past Weeks' High & Low Weather Summary

 TemperatureHumidityPressure
High86 °F (May 12, 3:50 PM)100% (May 15, 5:50 AM)30.33 "Hg (May 15, 5:50 AM)
Low41 °F (May 22, 5:20 AM)25% (May 18, 6:20 PM)29.71 "Hg (May 18, 6:50 PM)
Average62 °F52%30.05 "Hg
* Reported May 12 8:20 AM — May 27 8:50 AM, Worms, Weather by CustomWeather, © 2015

Note: Actual official high and low records may vary slightly from our data, if they occured in-between our weather recording intervals... More about our weather records

Advertising

Worms weather history for previous 24 hours

 ConditionsComfort  
Time TempWeatherWind HumidityBarometerVisibility
8:50 AM
Wed, May 27
50 °FPassing clouds.6 mph71%30.27 "HgN/A
8:20 AM50 °FPassing clouds.7 mph71%30.27 "HgN/A
7:50 AM48 °FOvercast.6 mph76%30.27 "HgN/A
7:20 AM48 °FPartly sunny.5 mph76%30.27 "HgN/A
6:50 AM46 °FBroken clouds.5 mph82%30.24 "HgN/A
6:20 AM46 °FClear.3 mph82%30.24 "Hg10 mi
5:50 AM46 °FClear.3 mph82%30.24 "Hg10 mi
5:20 AM48 °FPassing clouds.3 mph76%30.24 "HgN/A
9:20 PM
Tue, May 26
55 °FPassing clouds.9 mph51%30.18 "HgN/A
8:50 PM57 °FPassing clouds.8 mph48%30.18 "HgN/A
8:20 PM57 °FPassing clouds.9 mph48%30.18 "HgN/A
7:50 PM57 °FSunny.13 mph48%30.15 "Hg10 mi
7:20 PM59 °FPassing clouds.10 mph45%30.15 "HgN/A
6:50 PM59 °FPassing clouds.15 mph45%30.15 "HgN/A
6:20 PM59 °FSunny.14 mph45%30.12 "Hg10 mi
5:50 PM59 °FPassing clouds.10 mph45%30.12 "HgN/A
5:20 PM59 °FPassing clouds.16 mph45%30.12 "HgN/A
4:50 PM59 °FPassing clouds.13 mph42%30.12 "HgN/A
4:20 PM59 °FPassing clouds.15 mph42%30.12 "HgN/A
3:50 PM59 °FBroken clouds.12 mph45%30.09 "HgN/A
3:20 PM61 °FScattered clouds.10 mph42%30.09 "HgN/A
2:50 PM61 °FScattered clouds.13 mph42%30.09 "HgN/A
2:20 PM59 °FBroken clouds.10 mph51%30.09 "HgN/A
1:50 PM59 °FBroken clouds.9 mph48%30.09 "HgN/A
1:20 PM59 °FPartly sunny.9 mph51%30.09 "HgN/A
12:50 PM59 °FPartly sunny.9 mph51%30.09 "HgN/A
12:20 PM59 °FPartly sunny.10 mph48%30.09 "HgN/A
11:50 AM59 °FPartly sunny.9 mph59%30.07 "HgN/A
11:20 AM57 °FBroken clouds.10 mph63%30.07 "HgN/A
10:50 AM57 °FPartly sunny.8 mph63%30.07 "HgN/A
10:20 AM55 °FPartly sunny.10 mph72%30.07 "HgN/A
Weather by CustomWeather, © 2015

See weather overviewHow to use our weather pages